{"data":{"norad_id":69907,"epoch":"2026-09-19T23:17:00.199680Z","epoch_age_seconds":63546,"freshness":"FRESH","line1":"1 69907U 26156AQ  26262.97014120  .00000792  00000+0  85627-4 0  9992","line2":"2 69907  97.7416 162.0476 0002269 223.4857 136.6183 14.91027581 11124","mean_motion":14.91027581,"eccentricity":0.0002269,"inclination_deg":97.7416,"raan_deg":162.0476,"arg_perigee_deg":223.4857,"mean_anomaly_deg":136.6183,"bstar":8.5627e-5,"rev_number":1112,"period_min":96.57769033583,"perigee_km":593.1479904161,"apogee_km":596.31227752149,"semimajor_km":6972.8671339688,"source":"CELESTRAK","updated_at":"2026-09-20T09:00:25.173272Z"}}